| time (UTC) | temp F | wind direction | speed MPH | gust MPH | rain 1hr in | rain 24hr in | rain mn in | humidity % | barometer mb |
| 20260507075941 | 58 | 182 | 0.0 | 3.0 | 0.00 | 0.00 | 0.00 | 58 | 1014.8 |
| 20260507075441 | 58 | 182 | 0.0 | 3.0 | 0.00 | 0.00 | 0.00 | 55 | 1014.7 |
| 20260507075306 | 57 | 189 | 1.0 | 3.0 | 0.00 | 0.00 | 0.00 | 56 | 1014.7 |
| 20260507075215 | 57 | 157 | 0.0 | 2.0 | 0.00 | 0.00 | 0.00 | 55 | 1014.7 |
| 20260507074452 | 57 | 155 | 0.0 | 3.0 | 0.00 | 0.01 | 0.00 | 55 | 1015.0 |
| 20260507074448 | 57 | 164 | 0.0 | 2.0 | 0.00 | 0.00 | 0.00 | 55 | 1014.7 |
| 20260507074432 | 58 | 156 | 0.0 | 3.0 | 0.00 | 0.01 | 0.00 | 53 | 1014.7 |
| 20260507073302 | 56 | 166 | 1.0 | 3.0 | 0.00 | 0.02 | 0.00 | 58 | 1015.0 |
| 20260507072945 | 56 | 183 | 1.0 | 3.0 | 0.00 | 0.02 | 0.00 | 59 | 1014.9 |
| 20260507072713 | 56 | 190 | 1.0 | 3.0 | 0.00 | 0.02 | 0.00 | 57 | 1014.9 |
| 20260507072301 | 56 | 182 | 0.0 | 2.0 | 0.00 | 0.02 | 0.00 | 58 | 1014.9 |
| 20260507072217 | 56 | 211 | 0.0 | 2.0 | 0.00 | 0.02 | 0.00 | 59 | 1014.8 |
| 20260507071441 | 56 | 214 | 0.0 | 1.0 | 0.00 | 0.02 | 0.00 | 61 | 1014.8 |
| 20260507071301 | 56 | 208 | 0.0 | 1.0 | 0.00 | 0.02 | 0.00 | 62 | 1014.7 |
| 20260507070940 | 55 | 89 | 0.0 | 2.0 | 0.00 | 0.02 | 0.00 | 61 | 1014.7 |
| 20260507070712 | 54 | 88 | 0.0 | 2.0 | 0.00 | 0.02 | 0.00 | 63 | 1014.6 |
| 20260507070301 | 53 | 93 | 0.0 | 2.0 | 0.00 | 0.02 | 0.00 | 61 | 1014.5 |
| 20260507065940 | 53 | 107 | 0.0 | 2.0 | 0.00 | 0.02 | 0.00 | 62 | 1014.5 |
| 20260507065438 | 53 | 188 | 1.0 | 2.0 | 0.00 | 0.02 | 0.00 | 64 | 1014.6 |
| 20260507065305 | 53 | 208 | 1.0 | 2.0 | 0.00 | 0.02 | 0.00 | 63 | 1014.5 |
| 20260507065209 | 52 | 225 | 1.0 | 2.0 | 0.00 | 0.02 | 0.00 | 63 | 1014.5 |
| 20260507064435 | 53 | 216 | 0.0 | 2.0 | 0.00 | 0.02 | 0.00 | 63 | 1014.5 |
| 20260507064304 | 53 | 194 | 0.0 | 2.0 | 0.00 | 0.02 | 0.00 | 64 | 1014.5 |
| 20260507063937 | 53 | 112 | 0.0 | 2.0 | 0.00 | 0.02 | 0.00 | 63 | 1014.6 |
| 20260507063436 | 53 | 92 | 0.0 | 1.0 | 0.00 | 0.02 | 0.00 | 67 | 1014.5 |
| 20260507063257 | 53 | 92 | 0.0 | 1.0 | 0.00 | 0.02 | 0.00 | 68 | 1014.5 |
| 20260507062936 | 52 | 83 | 0.0 | 1.0 | 0.00 | 0.02 | 0.00 | 69 | 1014.3 |
| 20260507062711 | 51 | 65 | 0.0 | 1.0 | 0.00 | 0.02 | 0.00 | 70 | 1014.3 |
| 20260507062257 | 50 | 60 | 0.0 | 1.0 | 0.00 | 0.02 | 0.00 | 70 | 1014.2 |
| 20260507061937 | 49 | 59 | 0.0 | 1.0 | 0.00 | 0.02 | 0.00 | 73 | 1014.2 |
| 20260507061441 | 48 | 59 | 0.0 | 1.0 | 0.00 | 0.02 | 0.00 | 76 | 1013.9 |
| 20260507061257 | 48 | 59 | 0.0 | 1.0 | 0.00 | 0.02 | 0.00 | 78 | 1014.0 |
| 20260507060937 | 47 | 59 | 0.0 | 1.0 | 0.00 | 0.02 | 0.00 | 79 | 1013.9 |
| 20260507060437 | 45 | 59 | 0.0 | 1.0 | 0.00 | 0.02 | 0.00 | 81 | 1013.8 |
| 20260507060257 | 45 | 52 | 0.0 | 1.0 | 0.00 | 0.02 | 0.00 | 81 | 1013.8 |
| 20260507055935 | 45 | 349 | 0.0 | 2.0 | 0.00 | 0.02 | 0.00 | 81 | 1013.7 |
| 20260507055436 | 44 | 274 | 0.0 | 2.0 | 0.00 | 0.02 | 0.00 | 81 | 1013.7 |
| 20260507055256 | 44 | 274 | 0.0 | 2.0 | 0.00 | 0.02 | 0.00 | 81 | 1013.5 |
| 20260507055207 | 44 | 283 | 0.0 | 2.0 | 0.00 | 0.02 | 0.00 | 81 | 1013.5 |
| 20260507054435 | 44 | 345 | 0.0 | 2.0 | 0.00 | 0.02 | 0.00 | 81 | 1013.5 |
| 20260507054257 | 44 | 3 | 0.0 | 2.0 | 0.00 | 0.02 | 0.00 | 81 | 1013.5 |
| 20260507053936 | 44 | 14 | 0.0 | 0.0 | 0.00 | 0.02 | 0.00 | 81 | 1013.4 |
| 20260507053436 | 44 | 14 | 0.0 | 0.0 | 0.00 | 0.02 | 0.00 | 81 | 1013.4 |
| 20260507053257 | 44 | 14 | 0.0 | 0.0 | 0.00 | 0.03 | 0.00 | 80 | 1013.4 |
| 20260507052937 | 44 | 14 | 0.0 | 1.0 | 0.00 | 0.03 | 0.00 | 80 | 1013.2 |
| 20260507052437 | 44 | 14 | 0.0 | 1.0 | 0.00 | 0.05 | 0.00 | 80 | 1013.3 |
| 20260507052257 | 44 | 14 | 0.0 | 1.0 | 0.00 | 0.05 | 0.00 | 80 | 1013.2 |
| 20260507051933 | 44 | 14 | 0.0 | 2.0 | 0.00 | 0.06 | 0.00 | 79 | 1013.2 |
| 20260507051435 | 44 | 42 | 0.0 | 2.0 | 0.00 | 0.08 | 0.00 | 80 | 1013.2 |
| 20260507051257 | 44 | 53 | 0.0 | 2.0 | 0.00 | 0.08 | 0.00 | 80 | 1013.1 |
| 20260507050934 | 44 | 74 | 0.0 | 2.0 | 0.00 | 0.09 | 0.00 | 81 | 1013.1 |
| 20260507050434 | 44 | 348 | 0.0 | 2.0 | 0.00 | 0.11 | 0.00 | 80 | 1013.0 |
| 20260507050257 | 44 | 264 | 0.0 | 2.0 | 0.00 | 0.12 | 0.00 | 80 | 1013.0 |
| 20260507045937 | 44 | 291 | 0.0 | 2.0 | 0.00 | 0.13 | 0.00 | 80 | 1013.0 |
| 20260507045434 | 44 | 3 | 0.0 | 2.0 | 0.00 | 0.15 | 0.00 | 79 | 1012.9 |
| 20260507045257 | 44 | 13 | 0.0 | 1.0 | 0.00 | 0.16 | 0.00 | 79 | 1012.8 |
| 20260507044934 | 44 | 13 | 0.0 | 1.0 | 0.00 | 0.17 | 0.00 | 79 | 1012.8 |
| 20260507044432 | 44 | 13 | 0.0 | 1.0 | 0.00 | 0.18 | 0.00 | 78 | 1012.8 |
| 20260507044257 | 44 | 11 | 0.0 | 1.0 | 0.00 | 0.18 | 0.00 | 78 | 1012.7 |
| 20260507043930 | 44 | 349 | 0.0 | 3.0 | 0.00 | 0.20 | 0.00 | 77 | 1012.9 |
| 20260507043429 | 45 | 293 | 0.0 | 3.0 | 0.00 | 0.21 | 0.00 | 76 | 1012.8 |
| 20260507043257 | 45 | 280 | 0.0 | 3.0 | 0.00 | 0.22 | 0.00 | 76 | 1012.8 |
| 20260507042931 | 45 | 286 | 0.0 | 3.0 | 0.00 | 0.24 | 0.00 | 75 | 1012.7 |
| 20260507042430 | 46 | 342 | 0.0 | 3.0 | 0.00 | 0.25 | 0.00 | 74 | 1012.9 |
| 20260507042257 | 46 | 358 | 0.0 | 3.0 | 0.00 | 0.26 | 0.00 | 74 | 1012.9 |
| 20260507042201 | 45 | 14 | 0.0 | 3.0 | 0.00 | 0.27 | 0.00 | 74 | 1012.9 |
| 20260507041428 | 46 | 5 | 1.0 | 3.0 | 0.00 | 0.28 | 0.00 | 75 | 1012.7 |
| 20260507041258 | 46 | 359 | 1.0 | 3.0 | 0.00 | 0.28 | 0.00 | 75 | 1012.7 |
| 20260507040927 | 45 | 352 | 1.0 | 3.0 | 0.00 | 0.29 | 0.00 | 75 | 1012.7 |
| 20260507040426 | 45 | 339 | 0.0 | 4.0 | 0.00 | 0.29 | 0.00 | 76 | 1012.6 |
| 20260507040257 | 45 | 346 | 0.0 | 4.0 | 0.00 | 0.30 | 0.00 | 76 | 1012.7 |
| 20260507040158 | 45 | 350 | 0.0 | 4.0 | 0.00 | 0.30 | 0.00 | 76 | 1012.7 |
| 20260507035426 | 45 | 337 | 0.0 | 4.0 | 0.00 | 0.31 | 0.00 | 76 | 1012.7 |
| 20260507035258 | 45 | 320 | 1.0 | 4.0 | 0.00 | 0.31 | 0.00 | 76 | 1012.5 |
| 20260507034926 | 45 | 290 | 1.0 | 4.0 | 0.00 | 0.31 | 0.00 | 75 | 1012.7 |
| 20260507034427 | 45 | 280 | 1.0 | 5.0 | 0.00 | 0.31 | 0.00 | 75 | 1012.8 |
| 20260507034258 | 45 | 285 | 1.0 | 6.0 | 0.00 | 0.31 | 0.00 | 75 | 1012.8 |
| 20260507033928 | 45 | 292 | 1.0 | 6.0 | 0.00 | 0.31 | 0.00 | 76 | 1013.0 |
| 20260507033427 | 45 | 288 | 1.0 | 6.0 | 0.00 | 0.31 | 0.00 | 76 | 1013.0 |
| 20260507033258 | 45 | 280 | 2.0 | 6.0 | 0.00 | 0.31 | 0.00 | 76 | 1013.0 |
| 20260507032927 | 46 | 273 | 1.0 | 6.0 | 0.00 | 0.31 | 0.00 | 75 | 1013.0 |
| 20260507032428 | 45 | 282 | 0.0 | 6.0 | 0.00 | 0.31 | 0.00 | 77 | 1013.0 |
| 20260507032258 | 45 | 285 | 0.0 | 3.0 | 0.00 | 0.31 | 0.00 | 77 | 1013.0 |
| 20260507031927 | 45 | 286 | 0.0 | 3.0 | 0.00 | 0.31 | 0.00 | 77 | 1013.1 |
| 20260507031427 | 45 | 276 | 0.0 | 3.0 | 0.00 | 0.31 | 0.00 | 78 | 1013.3 |
| 20260507031259 | 45 | 285 | 0.0 | 3.0 | 0.00 | 0.31 | 0.00 | 79 | 1013.2 |
| 20260507030925 | 44 | 309 | 0.0 | 4.0 | 0.00 | 0.31 | 0.00 | 80 | 1013.1 |
| 20260507030658 | 45 | 336 | 0.0 | 4.0 | 0.00 | 0.31 | 0.00 | 80 | 1013.1 |
| 20260507030256 | 45 | 332 | 0.0 | 4.0 | 0.00 | 0.31 | 0.00 | 80 | 1013.1 |
| 20260507025926 | 44 | 313 | 0.0 | 4.0 | 0.00 | 0.32 | 0.00 | 80 | 1013.2 |
| 20260507025426 | 44 | 261 | 0.0 | 4.0 | 0.00 | 0.32 | 0.00 | 81 | 1013.3 |
| 20260507025257 | 44 | 244 | 0.0 | 4.0 | 0.00 | 0.32 | 0.00 | 81 | 1013.3 |
| 20260507024926 | 44 | 220 | 0.0 | 1.0 | 0.00 | 0.32 | 0.00 | 82 | 1013.4 |
| 20260507024426 | 44 | 217 | 0.0 | 0.0 | 0.00 | 0.32 | 0.00 | 82 | 1013.3 |
| 20260507024257 | 44 | 217 | 0.0 | 0.0 | 0.00 | 0.32 | 0.00 | 82 | 1013.3 |
| 20260507023926 | 45 | 218 | 0.0 | 0.0 | 0.00 | 0.32 | 0.00 | 82 | 1013.5 |
| 20260507023424 | 45 | 223 | 0.0 | 0.0 | 0.00 | 0.32 | 0.00 | 81 | 1013.4 |
| 20260507023257 | 45 | 226 | 0.0 | 0.0 | 0.00 | 0.32 | 0.00 | 81 | 1013.4 |
| 20260507022922 | 45 | 236 | 0.0 | 2.0 | 0.00 | 0.32 | 0.00 | 82 | 1013.5 |
| 20260507022422 | 45 | 243 | 0.0 | 2.0 | 0.00 | 0.32 | 0.00 | 82 | 1013.4 |
| 20260507022257 | 45 | 243 | 0.0 | 2.0 | 0.00 | 0.32 | 0.00 | 82 | 1013.5 |
| 20260507021927 | 45 | 242 | 0.0 | 2.0 | 0.00 | 0.32 | 0.00 | 81 | 1013.5 |
| 20260507021257 | 45 | 350 | 0.0 | 2.0 | 0.00 | 0.32 | 0.00 | 80 | 1013.5 |
| 20260507020921 | 45 | 34 | 0.0 | 2.0 | 0.00 | 0.32 | 0.00 | 81 | 1013.4 |
| 20260507020421 | 45 | 46 | 0.0 | 2.0 | 0.00 | 0.32 | 0.00 | 81 | 1013.4 |
| 20260507020257 | 45 | 31 | 0.0 | 2.0 | 0.00 | 0.32 | 0.00 | 81 | 1013.3 |
| 20260507015920 | 45 | 313 | 0.0 | 2.0 | 0.00 | 0.32 | 0.00 | 80 | 1013.2 |
| 20260507015422 | 45 | 51 | 0.0 | 3.0 | 0.00 | 0.32 | 0.00 | 80 | 1013.2 |
| 20260507015256 | 45 | 60 | 1.0 | 3.0 | 0.00 | 0.32 | 0.00 | 80 | 1013.3 |
| 20260507014921 | 45 | 73 | 1.0 | 3.0 | 0.00 | 0.33 | 0.00 | 80 | 1013.2 |
| 20260507014420 | 46 | 232 | 1.0 | 3.0 | 0.00 | 0.33 | 0.00 | 79 | 1013.3 |
| 20260507014255 | 46 | 229 | 1.0 | 3.0 | 0.00 | 0.33 | 0.00 | 78 | 1013.3 |
| 20260507013917 | 47 | 143 | 1.0 | 3.0 | 0.00 | 0.34 | 0.00 | 75 | 1013.3 |
| 20260507013417 | 47 | 78 | 1.0 | 2.0 | 0.00 | 0.34 | 0.00 | 74 | 1013.3 |
| 20260507013252 | 47 | 70 | 1.0 | 2.0 | 0.00 | 0.34 | 0.00 | 74 | 1013.3 |
| 20260507012919 | 47 | 45 | 1.0 | 2.0 | 0.00 | 0.34 | 0.00 | 74 | 1013.2 |
| 20260507012417 | 47 | 310 | 0.0 | 2.0 | 0.00 | 0.34 | 0.00 | 74 | 1013.2 |
| 20260507012252 | 47 | 303 | 0.0 | 2.0 | 0.00 | 0.34 | 0.00 | 74 | 1013.3 |
| 20260507011917 | 47 | 311 | 0.0 | 2.0 | 0.00 | 0.34 | 0.00 | 72 | 1013.2 |
| 20260507011415 | 48 | 1 | 0.0 | 2.0 | 0.00 | 0.34 | 0.00 | 71 | 1013.1 |
| 20260507011253 | 48 | 6 | 0.0 | 2.0 | 0.00 | 0.34 | 0.00 | 70 | 1013.1 |
| 20260507010915 | 48 | 2 | 0.0 | 2.0 | 0.00 | 0.34 | 0.00 | 70 | 1013.1 |
| 20260507010417 | 48 | 310 | 0.0 | 3.0 | 0.00 | 0.34 | 0.00 | 70 | 1013.0 |
| 20260507010252 | 48 | 296 | 0.0 | 3.0 | 0.00 | 0.34 | 0.00 | 70 | 1013.1 |
| 20260507005916 | 48 | 280 | 0.0 | 3.0 | 0.00 | 0.34 | 0.00 | 70 | 1013.0 |
| 20260507005433 | 49 | 355 | 0.0 | 3.0 | 0.00 | 0.34 | 0.00 | 68 | 1013.0 |
| 20260507005428 | 49 | 286 | 0.0 | 3.0 | 0.00 | 0.34 | 0.00 | 69 | 1013.0 |
| 20260507005412 | 49 | 302 | 0.0 | 3.0 | 0.00 | 0.34 | 0.00 | 69 | 1013.1 |
| 20260507004415 | 49 | 13 | 0.0 | 2.0 | 0.00 | 0.34 | 0.00 | 67 | 1013.0 |
| 20260507004250 | 49 | 10 | 0.0 | 2.0 | 0.00 | 0.34 | 0.00 | 68 | 1012.9 |
| 20260507003915 | 49 | 349 | 0.0 | 2.0 | 0.00 | 0.34 | 0.00 | 68 | 1013.0 |
| 20260507003417 | 49 | 309 | 0.0 | 2.0 | 0.00 | 0.34 | 0.00 | 68 | 1013.0 |
| 20260507003249 | 49 | 302 | 0.0 | 3.0 | 0.00 | 0.34 | 0.00 | 68 | 1013.0 |
| 20260507002915 | 49 | 307 | 0.0 | 3.0 | 0.00 | 0.34 | 0.00 | 69 | 1013.0 |
| 20260507002416 | 49 | 304 | 0.0 | 4.0 | 0.00 | 0.35 | 0.00 | 69 | 1013.0 |
| 20260507002248 | 49 | 299 | 0.0 | 4.0 | 0.00 | 0.35 | 0.00 | 68 | 1013.1 |
| 20260507001916 | 50 | 289 | 1.0 | 4.0 | 0.00 | 0.35 | 0.00 | 67 | 1013.0 |
| 20260507001415 | 51 | 286 | 1.0 | 4.0 | 0.00 | 0.35 | 0.00 | 65 | 1013.0 |
| 20260507001247 | 51 | 298 | 1.0 | 4.0 | 0.00 | 0.35 | 0.00 | 64 | 1013.0 |
| 20260507000916 | 51 | 308 | 1.0 | 4.0 | 0.00 | 0.35 | 0.00 | 63 | 1013.1 |
| 20260507000416 | 51 | 345 | 1.0 | 5.0 | 0.00 | 0.35 | 0.00 | 63 | 1013.1 |
| 20260507000247 | 51 | 343 | 1.0 | 5.0 | 0.00 | 0.35 | 0.00 | 63 | 1013.0 |
| 20260506235917 | 51 | 339 | 1.0 | 5.0 | 0.00 | 0.35 | 0.00 | 63 | 1013.0 |
| 20260506235417 | 51 | 345 | 1.0 | 5.0 | 0.00 | 0.35 | 0.00 | 64 | 1013.0 |
| 20260506235248 | 51 | 346 | 1.0 | 5.0 | 0.00 | 0.35 | 0.00 | 64 | 1013.0 |
| 20260506234918 | 51 | 10 | 1.0 | 5.0 | 0.00 | 0.35 | 0.00 | 63 | 1013.1 |
| 20260506234415 | 50 | 6 | 0.0 | 2.0 | 0.00 | 0.35 | 0.00 | 64 | 1013.0 |
| 20260506234246 | 50 | 8 | 0.0 | 2.0 | 0.00 | 0.35 | 0.00 | 65 | 1013.0 |
| 20260506233915 | 50 | 2 | 0.0 | 2.0 | 0.00 | 0.35 | 0.00 | 66 | 1012.9 |
| 20260506233416 | 50 | 13 | 0.0 | 2.0 | 0.00 | 0.35 | 0.00 | 67 | 1012.9 |
| 20260506233245 | 50 | 12 | 1.0 | 2.0 | 0.00 | 0.35 | 0.00 | 67 | 1012.9 |
| 20260506232916 | 49 | 13 | 1.0 | 2.0 | 0.00 | 0.35 | 0.00 | 69 | 1013.0 |
| 20260506232416 | 49 | 6 | 0.0 | 2.0 | 0.00 | 0.35 | 0.00 | 70 | 1013.0 |
| 20260506232245 | 49 | 6 | 0.0 | 2.0 | 0.00 | 0.35 | 0.00 | 70 | 1013.0 |
| 20260506231916 | 49 | 8 | 0.0 | 1.0 | 0.00 | 0.35 | 0.00 | 70 | 1012.9 |
| 20260506231416 | 49 | 15 | 0.0 | 2.0 | 0.00 | 0.35 | 0.00 | 70 | 1013.2 |
| 20260506231245 | 49 | 15 | 0.0 | 2.0 | 0.00 | 0.35 | 0.00 | 70 | 1013.0 |
| 20260506230915 | 49 | 353 | 0.0 | 2.0 | 0.00 | 0.35 | 0.00 | 70 | 1013.1 |
| 20260506230416 | 50 | 333 | 0.0 | 2.0 | 0.00 | 0.35 | 0.00 | 70 | 1013.0 |
| 20260506230242 | 50 | 332 | 1.0 | 2.0 | 0.00 | 0.35 | 0.00 | 70 | 1013.0 |
| 20260506225918 | 50 | 0 | 1.0 | 2.0 | 0.00 | 0.35 | 0.00 | 69 | 1013.2 |
| 20260506225414 | 50 | 354 | 0.0 | 2.0 | 0.00 | 0.35 | 0.00 | 68 | 1013.0 |
| 20260506225244 | 50 | 343 | 0.0 | 2.0 | 0.00 | 0.35 | 0.00 | 68 | 1013.1 |
| 20260506225144 | 50 | 313 | 0.0 | 4.0 | 0.00 | 0.35 | 0.00 | 68 | 1013.1 |
| 20260506224645 | 51 | 316 | 0.0 | 4.0 | 0.00 | 0.35 | 0.00 | 67 | 1013.1 |
| 20260506224239 | 51 | 311 | 0.0 | 4.0 | 0.00 | 0.35 | 0.00 | 67 | 1013.2 |
| 20260506224144 | 51 | 308 | 0.0 | 4.0 | 0.00 | 0.35 | 0.00 | 66 | 1013.2 |
| 20260506223417 | 51 | 312 | 0.0 | 4.0 | 0.00 | 0.35 | 0.00 | 66 | 1013.2 |
| 20260506223239 | 51 | 333 | 0.0 | 4.0 | 0.00 | 0.35 | 0.00 | 65 | 1013.1 |
| 20260506222910 | 50 | 356 | 1.0 | 2.0 | 0.00 | 0.35 | 0.00 | 68 | 1013.0 |
| 20260506222411 | 50 | 352 | 1.0 | 2.0 | 0.00 | 0.35 | 0.00 | 71 | 1013.0 |
| 20260506222237 | 50 | 347 | 0.0 | 1.0 | 0.00 | 0.35 | 0.00 | 70 | 1012.9 |
| 20260506221910 | 50 | 339 | 0.0 | 1.0 | 0.00 | 0.35 | 0.00 | 70 | 1013.0 |
| 20260506221409 | 51 | 345 | 0.0 | 1.0 | 0.00 | 0.35 | 0.00 | 69 | 1013.1 |
| 20260506221236 | 51 | 350 | 0.0 | 1.0 | 0.00 | 0.35 | 0.00 | 69 | 1013.1 |
| 20260506220910 | 51 | 357 | 0.0 | 2.0 | 0.00 | 0.35 | 0.00 | 67 | 1013.0 |
| 20260506220410 | 51 | 358 | 0.0 | 3.0 | 0.00 | 0.35 | 0.00 | 67 | 1013.0 |
| 20260506220237 | 51 | 356 | 0.0 | 3.0 | 0.00 | 0.35 | 0.00 | 66 | 1013.0 |
| 20260506215907 | 52 | 359 | 0.0 | 3.0 | 0.00 | 0.35 | 0.35 | 66 | 1013.0 |
| 20260506215408 | 52 | 29 | 1.0 | 3.0 | 0.00 | 0.35 | 0.35 | 65 | 1013.0 |
| 20260506215237 | 52 | 45 | 1.0 | 3.0 | 0.00 | 0.35 | 0.35 | 65 | 1013.0 |
| 20260506214908 | 52 | 90 | 1.0 | 3.0 | 0.00 | 0.35 | 0.35 | 68 | 1013.0 |
| 20260506214409 | 52 | 218 | 0.0 | 2.0 | 0.00 | 0.35 | 0.35 | 67 | 1012.9 |
| 20260506214237 | 52 | 234 | 0.0 | 2.0 | 0.00 | 0.35 | 0.35 | 67 | 1012.9 |
| 20260506213911 | 53 | 320 | 0.0 | 3.0 | 0.00 | 0.35 | 0.35 | 60 | 1013.1 |
| 20260506213907 | 53 | 295 | 0.0 | 2.0 | 0.00 | 0.35 | 0.35 | 65 | 1013.0 |
| 20260506213237 | 53 | 306 | 1.0 | 3.0 | 0.00 | 0.35 | 0.35 | 60 | 1013.0 |
| 20260506212906 | 53 | 291 | 1.0 | 3.0 | 0.00 | 0.35 | 0.35 | 62 | 1013.0 |
| 20260506212635 | 54 | 329 | 1.0 | 3.0 | 0.00 | 0.35 | 0.35 | 62 | 1012.9 |
| 20260506212237 | 54 | 345 | 1.0 | 3.0 | 0.00 | 0.35 | 0.35 | 61 | 1013.0 |
| 20260506211906 | 53 | 13 | 1.0 | 3.0 | 0.00 | 0.35 | 0.35 | 59 | 1013.0 |
| 20260506211637 | 53 | 31 | 0.0 | 3.0 | 0.00 | 0.35 | 0.35 | 63 | 1013.0 |
| 20260506211238 | 53 | 34 | 0.0 | 3.0 | 0.00 | 0.35 | 0.35 | 65 | 1012.9 |
| 20260506210909 | 53 | 33 | 0.0 | 3.0 | 0.00 | 0.35 | 0.35 | 64 | 1012.9 |
| 20260506210407 | 54 | 33 | 1.0 | 3.0 | 0.00 | 0.35 | 0.35 | 63 | 1013.0 |
| 20260506210238 | 54 | 34 | 1.0 | 3.0 | 0.00 | 0.35 | 0.35 | 62 | 1013.0 |
| 20260506210137 | 54 | 30 | 1.0 | 3.0 | 0.00 | 0.35 | 0.35 | 61 | 1013.0 |
| 20260506205406 | 54 | 19 | 1.0 | 3.0 | 0.00 | 0.35 | 0.35 | 61 | 1013.0 |
| 20260506205238 | 54 | 13 | 1.0 | 3.0 | 0.00 | 0.35 | 0.35 | 60 | 1013.0 |
| 20260506204905 | 55 | 9 | 1.0 | 3.0 | 0.00 | 0.35 | 0.35 | 58 | 1012.9 |
| 20260506204406 | 55 | 17 | 1.0 | 3.0 | 0.00 | 0.35 | 0.35 | 56 | 1012.8 |
| 20260506204236 | 55 | 23 | 1.0 | 4.0 | 0.00 | 0.35 | 0.35 | 56 | 1012.8 |
| 20260506203905 | 55 | 36 | 1.0 | 5.0 | 0.00 | 0.35 | 0.35 | 56 | 1012.7 |
| 20260506203406 | 56 | 42 | 0.0 | 5.0 | 0.00 | 0.35 | 0.35 | 56 | 1012.6 |
| 20260506203238 | 56 | 56 | 1.0 | 5.0 | 0.00 | 0.35 | 0.35 | 56 | 1012.6 |
| 20260506203138 | 56 | 106 | 1.0 | 5.0 | 0.00 | 0.35 | 0.35 | 55 | 1012.6 |
| 20260506202644 | 57 | 237 | 1.0 | 5.0 | 0.00 | 0.35 | 0.35 | 55 | 1012.7 |
| 20260506202237 | 57 | 319 | 1.0 | 5.0 | 0.00 | 0.35 | 0.35 | 52 | 1012.7 |
| 20260506201906 | 57 | 312 | 1.0 | 7.0 | 0.00 | 0.35 | 0.35 | 46 | 1012.5 |
| 20260506201405 | 57 | 335 | 1.0 | 7.0 | 0.00 | 0.35 | 0.35 | 48 | 1012.3 |
| 20260506201237 | 57 | 339 | 1.0 | 7.0 | 0.00 | 0.35 | 0.35 | 49 | 1012.3 |
| 20260506200906 | 57 | 341 | 1.0 | 7.0 | 0.00 | 0.35 | 0.35 | 47 | 1012.2 |
| 20260506200405 | 57 | 335 | 2.0 | 7.0 | 0.00 | 0.35 | 0.35 | 47 | 1012.0 |
| 20260506200237 | 57 | 337 | 1.0 | 7.0 | 0.00 | 0.35 | 0.35 | 47 | 1012.0 |
| 20260506195906 | 58 | 349 | 1.0 | 4.0 | 0.00 | 0.35 | 0.35 | 48 | 1012.0 |
| 20260506195635 | 58 | 33 | 1.0 | 3.0 | 0.00 | 0.35 | 0.35 | 46 | 1012.0 |
| 20260506195237 | 58 | 41 | 1.0 | 3.0 | 0.00 | 0.35 | 0.35 | 47 | 1011.8 |
| 20260506194908 | 58 | 57 | 1.0 | 3.0 | 0.00 | 0.35 | 0.35 | 46 | 1012.0 |
| 20260506194407 | 59 | 29 | 1.0 | 5.0 | 0.00 | 0.35 | 0.35 | 45 | 1011.8 |
| 20260506194239 | 59 | 358 | 1.0 | 6.0 | 0.00 | 0.35 | 0.35 | 44 | 1011.8 |
| 20260506193907 | 59 | 302 | 1.0 | 7.0 | 0.00 | 0.35 | 0.35 | 45 | 1011.6 |
| 20260506193406 | 59 | 49 | 1.0 | 7.0 | 0.00 | 0.35 | 0.35 | 44 | 1011.5 |
| 20260506193237 | 59 | 40 | 2.0 | 7.0 | 0.00 | 0.35 | 0.35 | 43 | 1011.4 |
| 20260506192906 | 59 | 346 | 2.0 | 7.0 | 0.00 | 0.35 | 0.35 | 44 | 1011.3 |
| 20260506192406 | 59 | 284 | 2.0 | 7.0 | 0.00 | 0.35 | 0.35 | 44 | 1011.2 |
| 20260506192237 | 59 | 302 | 2.0 | 7.0 | 0.00 | 0.35 | 0.35 | 45 | 1011.1 |
| 20260506192143 | 59 | 295 | 1.0 | 6.0 | 0.00 | 0.35 | 0.35 | 44 | 1011.2 |
| 20260506191405 | 59 | 267 | 2.0 | 7.0 | 0.00 | 0.35 | 0.35 | 44 | 1011.0 |
| 20260506191237 | 59 | 269 | 2.0 | 7.0 | 0.00 | 0.35 | 0.35 | 44 | 1011.1 |
| 20260506190906 | 59 | 72 | 2.0 | 8.0 | 0.00 | 0.35 | 0.35 | 44 | 1011.0 |
| 20260506190406 | 59 | 98 | 3.0 | 8.0 | 0.00 | 0.35 | 0.35 | 44 | 1010.9 |
| 20260506190237 | 59 | 104 | 3.0 | 8.0 | 0.00 | 0.35 | 0.35 | 43 | 1010.9 |
| 20260506185906 | 59 | 113 | 3.0 | 8.0 | 0.00 | 0.35 | 0.35 | 43 | 1010.9 |
| 20260506185406 | 59 | 83 | 2.0 | 8.0 | 0.00 | 0.35 | 0.35 | 43 | 1010.9 |
| 20260506185237 | 59 | 59 | 2.0 | 8.0 | 0.00 | 0.35 | 0.35 | 43 | 1010.7 |
| 20260506185140 | 59 | 349 | 2.0 | 7.0 | 0.00 | 0.35 | 0.35 | 43 | 1010.7 |
| 20260506184635 | 60 | 284 | 2.0 | 10.0 | 0.00 | 0.35 | 0.35 | 43 | 1010.9 |
| 20260506184237 | 60 | 277 | 2.0 | 10.0 | 0.00 | 0.35 | 0.35 | 43 | 1010.9 |
| 20260506183905 | 60 | 261 | 2.0 | 10.0 | 0.00 | 0.35 | 0.35 | 42 | 1010.8 |
| 20260506183638 | 60 | 250 | 2.0 | 13.0 | 0.00 | 0.35 | 0.35 | 42 | 1010.7 |
| 20260506183237 | 60 | 232 | 3.0 | 13.0 | 0.00 | 0.35 | 0.35 | 42 | 1010.7 |
| 20260506182906 | 60 | 227 | 3.0 | 13.0 | 0.00 | 0.35 | 0.35 | 41 | 1010.8 |
| 20260506182638 | 60 | 238 | 4.0 | 13.0 | 0.00 | 0.35 | 0.35 | 42 | 1010.5 |
| 20260506182237 | 60 | 243 | 4.0 | 13.0 | 0.00 | 0.35 | 0.35 | 42 | 1010.5 |
| 20260506181905 | 61 | 237 | 4.0 | 14.0 | 0.00 | 0.35 | 0.35 | 40 | 1010.5 |
| 20260506181406 | 60 | 260 | 4.0 | 14.0 | 0.00 | 0.35 | 0.35 | 42 | 1010.4 |
| 20260506181238 | 60 | 274 | 4.0 | 14.0 | 0.00 | 0.35 | 0.35 | 42 | 1010.3 |
| 20260506181138 | 61 | 262 | 4.0 | 14.0 | 0.00 | 0.35 | 0.35 | 43 | 1010.4 |
| 20260506180406 | 61 | 256 | 5.0 | 14.0 | 0.00 | 0.35 | 0.35 | 42 | 1009.9 |
| 20260506180237 | 61 | 257 | 4.0 | 14.0 | 0.00 | 0.35 | 0.35 | 42 | 1010.1 |
| 20260506175906 | 61 | 278 | 3.0 | 14.0 | 0.00 | 0.35 | 0.35 | 42 | 1009.9 |
| 20260506175406 | 60 | 352 | 1.0 | 7.0 | 0.00 | 0.35 | 0.35 | 43 | 1009.9 |
| 20260506175237 | 60 | 341 | 1.0 | 7.0 | 0.00 | 0.35 | 0.35 | 43 | 1009.8 |
| 20260506174905 | 61 | 340 | 1.0 | 7.0 | 0.00 | 0.35 | 0.35 | 43 | 1009.9 |
| 20260506174406 | 61 | 56 | 2.0 | 7.0 | 0.00 | 0.35 | 0.35 | 41 | 1009.7 |
| 20260506174236 | 61 | 53 | 2.0 | 10.0 | 0.00 | 0.35 | 0.35 | 41 | 1009.8 |
| 20260506173906 | 61 | 55 | 2.0 | 12.0 | 0.00 | 0.35 | 0.35 | 40 | 1009.9 |
| 20260506173638 | 62 | 177 | 2.0 | 12.0 | 0.00 | 0.35 | 0.35 | 41 | 1009.9 |
| 20260506173238 | 62 | 234 | 3.0 | 12.0 | 0.00 | 0.35 | 0.35 | 41 | 1010.0 |
| 20260506172906 | 62 | 240 | 4.0 | 14.0 | 0.00 | 0.35 | 0.35 | 40 | 1010.0 |
| 20260506172406 | 63 | 241 | 5.0 | 16.0 | 0.00 | 0.35 | 0.35 | 39 | 1009.8 |
| 20260506172237 | 63 | 227 | 5.0 | 16.0 | 0.00 | 0.35 | 0.35 | 39 | 1009.7 |
| 20260506171907 | 63 | 220 | 6.0 | 17.0 | 0.00 | 0.35 | 0.35 | 38 | 1009.8 |
| 20260506171407 | 63 | 232 | 7.0 | 17.0 | 0.00 | 0.35 | 0.35 | 38 | 1009.8 |
| 20260506171238 | 63 | 236 | 6.0 | 17.0 | 0.00 | 0.35 | 0.35 | 38 | 1009.9 |
| 20260506170907 | 63 | 241 | 6.0 | 17.0 | 0.00 | 0.35 | 0.35 | 39 | 1009.7 |
| 20260506170634 | 63 | 239 | 4.0 | 17.0 | 0.00 | 0.35 | 0.35 | 38 | 1009.6 |
| 20260506170238 | 63 | 245 | 4.0 | 17.0 | 0.00 | 0.35 | 0.35 | 39 | 1009.7 |
| 20260506165907 | 64 | 254 | 3.0 | 17.0 | 0.00 | 0.35 | 0.35 | 39 | 1009.7 |
| 20260506165405 | 64 | 219 | 4.0 | 17.0 | 0.00 | 0.35 | 0.35 | 39 | 1009.7 |
| 20260506165238 | 64 | 131 | 4.0 | 17.0 | 0.00 | 0.35 | 0.35 | 40 | 1009.7 |
| 20260506164906 | 64 | 157 | 6.0 | 17.0 | 0.00 | 0.35 | 0.35 | 40 | 1009.7 |
| 20260506164406 | 65 | 164 | 5.0 | 17.0 | 0.00 | 0.35 | 0.35 | 40 | 1009.4 |
| 20260506164237 | 65 | 180 | 4.0 | 17.0 | 0.00 | 0.35 | 0.35 | 39 | 1009.5 |
| 20260506164142 | 66 | 181 | 3.0 | 16.0 | 0.00 | 0.35 | 0.35 | 42 | 1009.6 |
| 20260506163406 | 66 | 203 | 5.0 | 16.0 | 0.00 | 0.35 | 0.35 | 40 | 1009.5 |
| 20260506163237 | 66 | 200 | 5.0 | 16.0 | 0.00 | 0.35 | 0.35 | 40 | 1009.4 |
| 20260506162906 | 66 | 181 | 4.0 | 16.0 | 0.00 | 0.35 | 0.35 | 40 | 1009.2 |
| 20260506162406 | 65 | 157 | 3.0 | 7.0 | 0.00 | 0.35 | 0.35 | 52 | 1009.2 |
| 20260506162237 | 65 | 169 | 3.0 | 7.0 | 0.00 | 0.35 | 0.35 | 57 | 1009.2 |
| 20260506162136 | 65 | 199 | 3.0 | 7.0 | 0.00 | 0.35 | 0.35 | 56 | 1009.2 |
| 20260506161407 | 65 | 142 | 2.0 | 7.0 | 0.00 | 0.35 | 0.35 | 57 | 1009.0 |
| 20260506161238 | 66 | 66 | 1.0 | 7.0 | 0.00 | 0.35 | 0.35 | 57 | 1009.1 |
| 20260506160907 | 65 | 23 | 2.0 | 8.0 | 0.00 | 0.35 | 0.35 | 58 | 1009.1 |
| 20260506160407 | 65 | 45 | 3.0 | 8.0 | 0.00 | 0.35 | 0.35 | 58 | 1008.9 |
| 20260506160239 | 65 | 69 | 3.0 | 8.0 | 0.00 | 0.35 | 0.35 | 58 | 1008.9 |
| 20260506155907 | 65 | 115 | 3.0 | 8.0 | 0.00 | 0.35 | 0.35 | 57 | 1008.8 |
| 20260506155643 | 65 | 118 | 3.0 | 8.0 | 0.00 | 0.35 | 0.35 | 57 | 1008.9 |
| 20260506155240 | 65 | 106 | 3.0 | 8.0 | 0.00 | 0.35 | 0.35 | 55 | 1008.9 |
| 20260506154907 | 65 | 54 | 3.0 | 8.0 | 0.00 | 0.35 | 0.35 | 57 | 1009.0 |
| 20260506154407 | 65 | 27 | 2.0 | 8.0 | 0.00 | 0.35 | 0.35 | 56 | 1009.1 |
| 20260506154238 | 66 | 48 | 3.0 | 8.0 | 0.00 | 0.35 | 0.35 | 54 | 1009.1 |
| 20260506153906 | 66 | 90 | 3.0 | 8.0 | 0.00 | 0.35 | 0.35 | 43 | 1009.0 |
| 20260506153645 | 65 | 100 | 3.0 | 8.0 | 0.00 | 0.35 | 0.35 | 44 | 1009.0 |
| 20260506153237 | 66 | 90 | 3.0 | 8.0 | 0.00 | 0.35 | 0.35 | 44 | 1009.1 |
| 20260506152905 | 66 | 68 | 2.0 | 7.0 | 0.00 | 0.35 | 0.35 | 46 | 1008.9 |
| 20260506152405 | 65 | 52 | 2.0 | 7.0 | 0.00 | 0.35 | 0.35 | 50 | 1009.2 |
| 20260506152237 | 65 | 59 | 3.0 | 7.0 | 0.00 | 0.35 | 0.35 | 49 | 1009.2 |
| 20260506151909 | 66 | 98 | 2.0 | 7.0 | 0.00 | 0.35 | 0.35 | 54 | 1009.0 |
| 20260506151905 | 67 | 195 | 2.0 | 7.0 | 0.00 | 0.35 | 0.35 | 50 | 1009.3 |
| 20260506151237 | 68 | 210 | 2.0 | 7.0 | 0.00 | 0.35 | 0.35 | 40 | 1009.4 |
| 20260506150904 | 68 | 222 | 2.0 | 7.0 | 0.00 | 0.35 | 0.35 | 36 | 1009.4 |
| 20260506150423 | 67 | 226 | 3.0 | 12.0 | 0.00 | 0.35 | 0.35 | 37 | 1009.3 |
| 20260506150417 | 67 | 226 | 3.0 | 9.0 | 0.00 | 0.35 | 0.35 | 36 | 1009.4 |
| 20260506150402 | 67 | 227 | 3.0 | 9.0 | 0.00 | 0.35 | 0.35 | 36 | 1009.3 |
| 20260506145400 | 67 | 235 | 4.0 | 12.0 | 0.00 | 0.35 | 0.35 | 37 | 1009.2 |
| 20260506145237 | 67 | 231 | 4.0 | 15.0 | 0.00 | 0.35 | 0.35 | 36 | 1009.2 |
| 20260506144901 | 67 | 230 | 4.0 | 15.0 | 0.00 | 0.35 | 0.35 | 36 | 1009.2 |
| 20260506144400 | 67 | 229 | 5.0 | 15.0 | 0.00 | 0.35 | 0.35 | 38 | 1009.2 |
| 20260506144237 | 67 | 228 | 5.0 | 15.0 | 0.00 | 0.35 | 0.35 | 38 | 1009.2 |
| 20260506144137 | 66 | 231 | 6.0 | 16.0 | 0.00 | 0.35 | 0.35 | 37 | 1009.0 |
| 20260506143400 | 65 | 248 | 6.0 | 16.0 | 0.00 | 0.35 | 0.35 | 40 | 1009.1 |
| 20260506143238 | 65 | 253 | 6.0 | 16.0 | 0.00 | 0.35 | 0.35 | 40 | 1009.3 |
| 20260506142858 | 65 | 249 | 6.0 | 25.0 | 0.00 | 0.35 | 0.35 | 40 | 1009.1 |
| 20260506142357 | 64 | 234 | 7.0 | 25.0 | 0.00 | 0.35 | 0.35 | 41 | 1009.0 |
| 20260506142236 | 64 | 232 | 8.0 | 25.0 | 0.00 | 0.35 | 0.35 | 41 | 1009.3 |
| 20260506141855 | 64 | 232 | 9.0 | 25.0 | 0.00 | 0.35 | 0.35 | 39 | 1009.3 |
| 20260506141356 | 65 | 237 | 9.0 | 25.0 | 0.00 | 0.35 | 0.35 | 37 | 1009.5 |
| 20260506141238 | 65 | 233 | 9.0 | 25.0 | 0.00 | 0.35 | 0.35 | 39 | 1009.4 |
| 20260506140855 | 65 | 239 | 7.0 | 14.0 | 0.00 | 0.35 | 0.35 | 40 | 1009.4 |
| 20260506140356 | 65 | 244 | 6.0 | 14.0 | 0.00 | 0.35 | 0.35 | 41 | 1009.5 |
| 20260506140238 | 65 | 251 | 6.0 | 14.0 | 0.00 | 0.35 | 0.35 | 41 | 1009.6 |
| 20260506135855 | 65 | 256 | 5.0 | 12.0 | 0.00 | 0.35 | 0.35 | 42 | 1009.6 |
| 20260506135356 | 66 | 257 | 5.0 | 15.0 | 0.00 | 0.35 | 0.35 | 41 | 1009.6 |
| 20260506135237 | 67 | 259 | 5.0 | 15.0 | 0.00 | 0.35 | 0.35 | 43 | 1009.6 |
| 20260506134855 | 67 | 251 | 6.0 | 15.0 | 0.00 | 0.35 | 0.35 | 40 | 1009.5 |
| 20260506134356 | 67 | 245 | 7.0 | 15.0 | 0.00 | 0.35 | 0.35 | 39 | 1009.5 |
| 20260506134237 | 67 | 241 | 7.0 | 15.0 | 0.00 | 0.35 | 0.35 | 37 | 1009.4 |
| 20260506133857 | 67 | 239 | 7.0 | 15.0 | 0.00 | 0.35 | 0.35 | 37 | 1009.3 |
| 20260506133355 | 68 | 239 | 6.0 | 13.0 | 0.00 | 0.35 | 0.35 | 38 | 1009.1 |
| 20260506133241 | 68 | 242 | 5.0 | 13.0 | 0.00 | 0.35 | 0.35 | 38 | 1009.1 |
| 20260506132855 | 68 | 246 | 6.0 | 13.0 | 0.00 | 0.35 | 0.35 | 38 | 1009.2 |
| 20260506132356 | 68 | 231 | 5.0 | 11.0 | 0.00 | 0.35 | 0.35 | 39 | 1009.3 |
| 20260506132237 | 68 | 228 | 4.0 | 11.0 | 0.00 | 0.35 | 0.35 | 39 | 1009.3 |
| 20260506131855 | 68 | 218 | 3.0 | 11.0 | 0.00 | 0.35 | 0.35 | 40 | 1009.5 |
| 20260506131356 | 67 | 229 | 4.0 | 11.0 | 0.00 | 0.35 | 0.35 | 39 | 1009.5 |
| 20260506131236 | 67 | 227 | 5.0 | 12.0 | 0.00 | 0.35 | 0.35 | 38 | 1009.4 |
| 20260506130855 | 66 | 233 | 6.0 | 12.0 | 0.00 | 0.35 | 0.35 | 43 | 1009.5 |
| 20260506130355 | 67 | 236 | 5.0 | 12.0 | 0.00 | 0.35 | 0.35 | 44 | 1009.7 |
| 20260506130238 | 67 | 238 | 6.0 | 12.0 | 0.00 | 0.35 | 0.35 | 46 | 1009.7 |
| 20260506125855 | 65 | 212 | 5.0 | 12.0 | 0.00 | 0.35 | 0.35 | 46 | 1009.5 |
| 20260506125356 | 65 | 95 | 3.0 | 12.0 | 0.00 | 0.35 | 0.35 | 59 | 1009.7 |
| 20260506125235 | 65 | 80 | 3.0 | 8.0 | 0.00 | 0.35 | 0.35 | 58 | 1009.4 |
| 20260506124855 | 64 | 67 | 2.0 | 8.0 | 0.00 | 0.35 | 0.35 | 64 | 1009.4 |
| 20260506124356 | 63 | 119 | 3.0 | 8.0 | 0.00 | 0.35 | 0.35 | 65 | 1009.4 |
| 20260506124235 | 63 | 130 | 3.0 | 8.0 | 0.00 | 0.35 | 0.35 | 66 | 1009.4 |
| 20260506123856 | 63 | 131 | 4.0 | 8.0 | 0.00 | 0.35 | 0.35 | 65 | 1009.3 |
| 20260506123356 | 63 | 101 | 4.0 | 8.0 | 0.00 | 0.35 | 0.35 | 66 | 1009.2 |
| 20260506123235 | 62 | 35 | 4.0 | 10.0 | 0.00 | 0.35 | 0.35 | 66 | 1009.3 |
| 20260506122855 | 62 | 0 | 3.0 | 10.0 | 0.00 | 0.35 | 0.35 | 66 | 1009.5 |
| 20260506122356 | 62 | 19 | 2.0 | 10.0 | 0.00 | 0.35 | 0.35 | 65 | 1009.1 |
| 20260506122233 | 62 | 23 | 2.0 | 10.0 | 0.00 | 0.35 | 0.35 | 65 | 1009.0 |
| 20260506121856 | 62 | 60 | 3.0 | 10.0 | 0.00 | 0.35 | 0.35 | 65 | 1009.0 |
| 20260506121356 | 62 | 108 | 3.0 | 10.0 | 0.00 | 0.35 | 0.35 | 66 | 1008.8 |
| 20260506121233 | 62 | 127 | 3.0 | 9.0 | 0.00 | 0.35 | 0.35 | 65 | 1008.9 |
| 20260506120856 | 62 | 199 | 3.0 | 9.0 | 0.00 | 0.35 | 0.35 | 66 | 1009.0 |
| 20260506120356 | 62 | 102 | 4.0 | 9.0 | 0.00 | 0.35 | 0.35 | 65 | 1009.1 |
| 20260506120233 | 62 | 98 | 3.0 | 9.0 | 0.00 | 0.35 | 0.35 | 65 | 1008.9 |
| 20260506115856 | 63 | 96 | 3.0 | 15.0 | 0.00 | 0.35 | 0.35 | 64 | 1008.9 |
| 20260506115356 | 63 | 69 | 3.0 | 15.0 | 0.00 | 0.35 | 0.35 | 63 | 1009.0 |
| 20260506115232 | 63 | 54 | 4.0 | 15.0 | 0.00 | 0.35 | 0.35 | 64 | 1009.0 |
| 20260506114855 | 62 | 34 | 6.0 | 15.0 | 0.00 | 0.35 | 0.35 | 64 | 1008.9 |
| 20260506114626 | 62 | 10 | 7.0 | 15.0 | 0.00 | 0.35 | 0.35 | 64 | 1008.6 |
| 20260506114232 | 62 | 14 | 6.0 | 15.0 | 0.00 | 0.35 | 0.35 | 65 | 1008.6 |
| 20260506113855 | 63 | 45 | 5.0 | 15.0 | 0.00 | 0.35 | 0.35 | 65 | 1008.4 |
| 20260506113356 | 63 | 79 | 4.0 | 15.0 | 0.00 | 0.35 | 0.35 | 63 | 1008.6 |
| 20260506113233 | 63 | 89 | 5.0 | 15.0 | 0.00 | 0.35 | 0.35 | 63 | 1008.7 |
| 20260506112857 | 63 | 312 | 4.0 | 15.0 | 0.00 | 0.35 | 0.35 | 63 | 1008.6 |
| 20260506112356 | 63 | 79 | 5.0 | 15.0 | 0.00 | 0.35 | 0.35 | 64 | 1008.3 |
| 20260506112232 | 63 | 81 | 4.0 | 15.0 | 0.00 | 0.35 | 0.35 | 65 | 1008.4 |
| 20260506111856 | 63 | 98 | 4.0 | 8.0 | 0.00 | 0.35 | 0.35 | 63 | 1008.8 |
| 20260506111356 | 64 | 140 | 3.0 | 9.0 | 0.00 | 0.35 | 0.35 | 61 | 1008.8 |
| 20260506111232 | 64 | 112 | 3.0 | 9.0 | 0.00 | 0.35 | 0.35 | 63 | 1008.6 |
| 20260506110856 | 64 | 94 | 3.0 | 9.0 | 0.00 | 0.35 | 0.35 | 64 | 1008.7 |
| 20260506110356 | 63 | 102 | 4.0 | 9.0 | 0.00 | 0.35 | 0.35 | 63 | 1008.6 |
| 20260506110237 | 63 | 127 | 3.0 | 9.0 | 0.00 | 0.35 | 0.35 | 64 | 1008.7 |
| 20260506105909 | 63 | 169 | 2.0 | 4.0 | 0.00 | 0.35 | 0.35 | 61 | 1008.9 |
| 20260506105904 | 64 | 138 | 3.0 | 9.0 | 0.00 | 0.35 | 0.35 | 62 | 1009.0 |
| 20260506105232 | 63 | 176 | 2.0 | 4.0 | 0.00 | 0.35 | 0.35 | 61 | 1008.9 |
| 20260506104856 | 63 | 210 | 1.0 | 4.0 | 0.00 | 0.35 | 0.35 | 62 | 1009.1 |
| 20260506104355 | 63 | 231 | 2.0 | 4.0 | 0.00 | 0.35 | 0.35 | 61 | 1009.1 |
| 20260506104233 | 63 | 231 | 1.0 | 4.0 | 0.00 | 0.35 | 0.35 | 62 | 1009.3 |
| 20260506103856 | 63 | 235 | 2.0 | 4.0 | 0.00 | 0.35 | 0.35 | 62 | 1009.1 |
| 20260506103357 | 62 | 204 | 3.0 | 4.0 | 0.00 | 0.35 | 0.35 | 62 | 1009.1 |
| 20260506103232 | 62 | 191 | 3.0 | 4.0 | 0.00 | 0.35 | 0.35 | 62 | 1009.1 |
| 20260506102856 | 61 | 163 | 4.0 | 4.0 | 0.00 | 0.35 | 0.35 | 66 | 1009.1 |
| 20260506102400 | 61 | 148 | 2.0 | 4.0 | 0.00 | 0.35 | 0.35 | 68 | 1009.3 |
| 20260506102232 | 61 | 164 | 2.0 | 4.0 | 0.00 | 0.35 | 0.35 | 68 | 1009.2 |
| 20260506101856 | 61 | 281 | 2.0 | 4.0 | 0.00 | 0.35 | 0.35 | 68 | 1009.4 |
| 20260506101353 | 60 | 263 | 2.0 | 4.0 | 0.00 | 0.35 | 0.35 | 68 | 1009.2 |
| 20260506101231 | 60 | 261 | 2.0 | 4.0 | 0.00 | 0.35 | 0.35 | 67 | 1009.2 |
| 20260506101126 | 60 | 247 | 2.0 | 7.0 | 0.00 | 0.35 | 0.35 | 69 | 1009.2 |
| 20260506100354 | 60 | 241 | 2.0 | 7.0 | 0.00 | 0.35 | 0.35 | 68 | 1009.2 |
| 20260506100231 | 59 | 247 | 3.0 | 7.0 | 0.00 | 0.35 | 0.35 | 71 | 1009.2 |
| 20260506095852 | 59 | 243 | 3.0 | 7.0 | 0.00 | 0.35 | 0.35 | 70 | 1009.3 |
| 20260506095231 | 59 | 185 | 2.0 | 7.0 | 0.00 | 0.35 | 0.35 | 70 | 1009.5 |
| 20260506094850 | 60 | 113 | 1.0 | 5.0 | 0.00 | 0.35 | 0.35 | 71 | 1009.3 |
| 20260506094349 | 60 | 112 | 0.0 | 4.0 | 0.00 | 0.35 | 0.35 | 70 | 1009.5 |
| 20260506094231 | 60 | 115 | 0.0 | 4.0 | 0.00 | 0.35 | 0.35 | 70 | 1009.5 |
| 20260506093845 | 60 | 97 | 1.0 | 4.0 | 0.00 | 0.36 | 0.35 | 70 | 1009.6 |
| 20260506093618 | 59 | 88 | 2.0 | 4.0 | 0.00 | 0.36 | 0.35 | 72 | 1009.7 |
| 20260506093231 | 59 | 89 | 2.0 | 5.0 | 0.00 | 0.36 | 0.35 | 70 | 1009.8 |
| 20260506092847 | 59 | 168 | 1.0 | 5.0 | 0.00 | 0.36 | 0.35 | 71 | 1009.7 |
| 20260506092346 | 59 | 240 | 2.0 | 5.0 | 0.00 | 0.36 | 0.35 | 72 | 1009.7 |
| 20260506092231 | 58 | 244 | 2.0 | 5.0 | 0.00 | 0.36 | 0.35 | 74 | 1009.8 |
| 20260506091846 | 58 | 245 | 2.0 | 5.0 | 0.00 | 0.36 | 0.35 | 74 | 1009.8 |
| 20260506091346 | 59 | 249 | 2.0 | 5.0 | 0.00 | 0.36 | 0.35 | 72 | 1009.8 |
| 20260506091230 | 58 | 255 | 2.0 | 3.0 | 0.00 | 0.36 | 0.35 | 72 | 1009.9 |
| 20260506090854 | 56 | 271 | 3.0 | 3.0 | 0.00 | 0.36 | 0.35 | 79 | 1009.7 |
| 20260506090847 | 58 | 262 | 2.0 | 3.0 | 0.00 | 0.36 | 0.35 | 75 | 1009.8 |
| 20260506090231 | 56 | 271 | 3.0 | 3.0 | 0.00 | 0.36 | 0.35 | 79 | 1009.7 |
| 20260506090121 | 56 | 270 | 3.0 | 3.0 | 0.00 | 0.36 | 0.35 | 79 | 1009.8 |
| 20260506085346 | 56 | 245 | 2.0 | 4.0 | 0.00 | 0.36 | 0.35 | 79 | 1009.7 |
| 20260506085231 | 56 | 241 | 2.0 | 4.0 | 0.00 | 0.36 | 0.35 | 79 | 1009.7 |
| 20260506084845 | 56 | 232 | 1.0 | 4.0 | 0.00 | 0.36 | 0.35 | 79 | 1009.7 |
| 20260506084619 | 55 | 238 | 1.0 | 4.0 | 0.00 | 0.36 | 0.35 | 81 | 1009.6 |
| 20260506084229 | 55 | 238 | 1.0 | 4.0 | 0.01 | 0.36 | 0.35 | 81 | 1009.6 |
| 20260506083846 | 55 | 234 | 2.0 | 6.0 | 0.01 | 0.36 | 0.35 | 82 | 1009.7 |
| 20260506083346 | 54 | 239 | 2.0 | 6.0 | 0.02 | 0.36 | 0.35 | 84 | 1009.6 |
| 20260506083232 | 54 | 241 | 2.0 | 6.0 | 0.02 | 0.36 | 0.35 | 85 | 1009.8 |
| 20260506082846 | 54 | 245 | 3.0 | 6.0 | 0.02 | 0.36 | 0.35 | 85 | 1009.8 |
| 20260506082345 | 53 | 240 | 3.0 | 6.0 | 0.02 | 0.36 | 0.35 | 86 | 1009.8 |
| 20260506082229 | 53 | 241 | 3.0 | 6.0 | 0.02 | 0.36 | 0.35 | 86 | 1009.7 |
| 20260506081845 | 53 | 243 | 3.0 | 6.0 | 0.02 | 0.36 | 0.35 | 88 | 1009.8 |
| 20260506081346 | 53 | 248 | 3.0 | 6.0 | 0.02 | 0.36 | 0.35 | 88 | 1009.7 |
| 20260506081228 | 53 | 246 | 3.0 | 6.0 | 0.02 | 0.36 | 0.35 | 88 | 1009.7 |
| 20260506080845 | 52 | 241 | 3.0 | 5.0 | 0.02 | 0.36 | 0.35 | 90 | 1009.7 |
| 20260506080353 | 52 | 239 | 2.0 | 5.0 | 0.02 | 0.36 | 0.35 | 89 | 1010.0 |
| 20260506080348 | 52 | 236 | 2.0 | 5.0 | 0.02 | 0.36 | 0.35 | 89 | 1009.8 |
| 20260506080341 | 52 | 237 | 2.0 | 5.0 | 0.02 | 0.36 | 0.35 | 89 | 1009.9 |